Location: Desert Center
(33.7130°N, 115.4010°W)
Time: 02:30:09
(UTC-07:00)

Daily predictions for brighter satellites

Satellite Brightness Start Highest point End
(mag) Time Altitude Azimuth Time Altitude Azimuth Time Altitude Azimuth
ATLAS 2AS CENTAUR R/B 4.1 00:42:53 36° NW 00:42:53 36° NW 00:49:54 10° NNE
ATLAS 3B R/B 4.5 01:07:29 10° NW 01:09:36 21° NW 01:09:36 21° NW
Cosmos 1943 Rocket 4.4 01:10:01 10° N 01:12:00 21° N 01:12:00 21° N
USA 215 4.1 01:43:28 10° NE 01:47:57 46° NNE 01:47:57 46° NNE
CENTAUR R/B 4.5 02:03:32 10° NNW 02:10:39 34° NE 02:18:05 10° ESE
NOSS 3-2 (C) 4.3 02:03:23 10° NNW 02:09:26 60° NNW 02:09:26 60° NNW
Resurs 1-4 Rocket 4.0 02:13:21 10° NE 02:16:22 24° ENE 02:16:22 24° ENE
COSMOS 2455 4.2 02:17:19 10° NNW 02:20:33 33° NNW 02:20:33 33° NNW
SL-16 R/B 3.8 02:25:02 32° E 02:26:22 35° ENE 02:31:52 10° N
ARIANE 5 R/B 4.3 02:21:49 10° NE 02:25:06 27° ENE 02:25:06 27° ENE
CZ-2D R/B 3.4 02:33:50 10° NNE 02:37:38 36° ENE 02:37:38 36° ENE
Cosmos 1818 4.3 02:55:17 48° N 02:55:17 48° N 02:59:15 10° NNE
Lacrosse 5 rocket 3.5 03:03:43 25° N 03:03:43 25° N 03:06:23 10° NNE
Cosmos 1833 Rocket 4.0 03:03:41 29° ESE 03:04:26 30° ESE 03:09:17 10° NE
Cosmos 2082 Rocket 3.2 03:09:07 37° ESE 03:09:50 38° ESE 03:15:04 10° NE
GEOS 3 Rocket 3.7 03:10:15 10° NNE 03:15:10 76° NNE 03:15:10 76° NNE
Meteor 2-5 Rocket 4.4 03:20:19 41° SE 03:21:49 51° E 03:27:25 10° NNE
Cosmos 1707 4.0 03:29:01 40° NNE 03:29:01 40° NNE 03:31:37 10° NNE
COBE Rocket 4.0 03:26:03 10° N 03:30:28 65° NNW 03:30:28 65° NNW
Cosmos 1727 Rocket 3.9 03:29:47 59° S 03:31:04 85° E 03:37:15 10° N
Cosmos 1470 3.9 03:42:56 10° NNW 03:45:18 35° NNW 03:45:18 35° NNW
USA 161 3.6 03:49:23 25° NNE 03:49:23 25° NNE 03:50:50 10° N
ADEOS Rocket 3.6 03:45:15 10° N 03:51:11 45° WNW 03:52:29 40° W
Yuri Rocket 4.4 03:51:30 32° SSE 03:51:45 32° SSE 03:57:14 10° E
Resurs 1-4 Rocket 3.0 03:52:53 10° N 03:57:27 31° WNW 03:57:27 31° WNW
Okean O Rocket 3.2 03:54:21 10° NNE 03:58:20 32° E 04:01:40 13° SSE
CENTAUR R/B 3.1 03:53:50 10° NW 04:01:44 57° WSW 04:09:56 10° S
USA 267 3.2 03:55:25 10° SE 04:01:58 86° NE 04:08:32 10° NW
MOS 1-B 4.3 03:56:28 10° NNE 04:02:18 82° ESE 04:05:31 28° S
UNKNOWN OBJECT B 3.6 04:00:28 10° N 04:03:49 39° WNW 04:03:49 39° WNW
ARIANE 5 R/B 3.6 04:01:00 10° NNW 04:05:20 27° WNW 04:05:28 27° WNW
Delta 2 Rocket 4.4 04:06:22 34° SSW 04:07:42 38° S 04:13:20 10° ESE
OE (NEXTSAT) 4.3 04:08:07 80° NW 04:08:07 80° NW 04:11:40 10° NE
Tiangong 1 2.1 04:09:10 35° ESE 04:09:10 35° ESE 04:11:00 10° ESE
Cosmos-2242 3.6 04:05:15 10° NNW 04:08:50 39° WNW 04:08:50 39° WNW
SL-16 R/B 3.3 04:10:07 30° W 04:10:07 30° W 04:15:15 10° NW
Delta 2 Rocket 2.7 04:10:20 81° SE 04:10:20 81° SE 04:13:32 10° ESE
Cosmos 1452 Rocket 3.5 04:06:19 10° NNW 04:11:28 60° WSW 04:15:00 20° S
Cosmos 1605 Rocket 4.4 04:06:22 10° NNW 04:12:04 41° W 04:13:40 34° SW
Meteor 1-24 Rocket 3.6 04:09:13 26° S 04:12:28 88° E 04:18:09 10° N
MOS 1 Rocket 3.3 04:13:28 10° N 04:17:47 54° WNW 04:19:08 39° SW
CZ-2D R/B 3.5 04:14:47 10° NNW 04:18:31 20° WNW 04:18:59 20° WNW
MOZ.5/SAFIR/RUBIN 5/SL-8 4.0 04:19:05 37° SW 04:20:20 46° W 04:24:51 10° NNW
Cosmos 1697 Rocket 3.2 04:15:20 10° NNW 04:20:54 60° ENE 04:26:25 10° SSE
Cosmos 1842 Rocket 3.4 04:17:45 10° N 04:22:10 75° W 04:25:40 16° S
PSLV R/B 4.4 04:19:41 10° NNE 04:23:54 49° E 04:28:03 10° S
Cosmos 1420 Rocket 3.9 04:19:53 10° NNW 04:25:11 72° WSW 04:30:25 10° S
Cosmos 1048 Rocket 4.3 04:24:45 32° WSW 04:26:38 47° WNW 04:31:34 10° N
Timation 2 Rocket 4.1 04:23:26 24° SSW 04:27:38 72° WNW 04:34:07 10° NNE
Cosmos 2221 3.6 04:25:00 10° N 04:29:06 45° E 04:33:10 10° SSE
PSLV R/B 3.8 04:27:46 10° N 04:31:54 73° WNW 04:34:24 23° SSW
Cosmos 2278 3.9 04:27:36 10° NNW 04:33:03 46° WSW 04:38:27 10° S
Intercosmos 25 4.4 04:27:53 10° NNW 04:33:18 38° W 04:34:51 28° SW
Cosmos 1674 4.2 04:31:32 10° SSE 04:35:01 37° E 04:38:33 10° NNE
Cosmos 1000 Rocket 4.5 04:30:54 16° SSW 04:35:48 63° W 04:41:58 10° N
KM-V1 4.1 04:35:37 39° SW 04:36:28 54° S 04:41:18 10° ESE
Cosmos 2369 4.1 04:36:27 10° NW 04:41:45 40° WSW 04:47:01 10° S
Cosmos 1656 3.6 04:39:18 10° NNW 04:44:34 55° WSW 04:49:52 10° S
Cosmos 2100 Rocket 4.1 04:40:19 10° NNW 04:46:18 54° W 04:52:13 10° SSW
Cosmos 1833 Rocket 3.7 04:45:24 20° WSW 04:48:14 30° WNW 04:53:09 10° N
Cosmos 2173 Rocket 4.0 04:42:21 10° NNW 04:48:27 57° W 04:54:26 10° S
DELTA 2 R/B(2) 4.2 04:50:06 26° NW 04:50:22 28° NNW 04:51:56 10° NE
IRS-1C Rocket 4.0 04:45:33 10° N 04:50:50 78° WNW 04:56:06 10° SSW
Intelsat 5-3 Rocket 4.0 04:50:49 17° SW 04:51:44 18° SSW 04:54:06 10° SSE
Cosmos 972 Rocket 4.2 04:47:29 10° NNW 04:53:37 70° WSW 04:59:03 10° S
Cosmos 2082 Rocket 3.4 04:50:59 17° WSW 04:53:58 25° WNW 04:58:37 10° N
Landsat 4 4.5 04:51:56 15° SSW 04:54:21 30° W 04:57:40 10° NW
ERS-2 4.5 04:52:57 10° NE 04:56:00 24° E 04:59:02 10° SSE
Cosmos 1980 Rocket 2.5 04:50:23 10° NNW 04:56:04 71° ENE 05:01:41 10° SSE
Cosmos 1340 Rocket 3.2 04:52:19 10° S 04:56:17 64° E 05:00:13 10° NNE
ADEOS II 2.2 04:52:47 10° N 04:57:56 57° WNW 05:03:03 10° SSW
GPS 2-05 Rocket1 3.2 04:58:08 13° W 05:01:09 61° N 05:04:36 10° E
Aurora 2 Rocket 4.4 04:59:45 10° SSW 05:01:51 13° S 05:03:43 10° SE
Orbus 7S? 2.4 04:59:31 10° NW 05:02:12 59° SW 05:04:59 10° SSE
CZ-4B R/B 3.3 05:02:21 10° N 05:07:34 56° WNW 05:12:42 10° SSW
Cosmos 1864 Rocket 4.5 05:02:04 10° N 05:08:14 85° W 05:14:25 10° S
Cosmos 1331 Rocket 4.4 05:03:21 10° NNW 05:08:34 70° ENE 05:13:42 10° SSE
Cosmos 2251 Rocket 3.5 05:03:41 10° SSW 05:08:56 72° WNW 05:14:15 10° NNE
CZ-4B R/B 4.1 05:10:50 10° NNW 05:14:40 30° WNW 05:18:34 10° SW
Meteor 1-21 Rocket 4.3 05:09:30 10° SSW 05:15:16 73° W 05:21:10 10° N
Okean 3 Rocket 4.4 05:11:28 10° SW 05:15:20 30° WNW 05:19:16 10° NNW
Okean-O 3.1 05:11:09 10° NNE 05:15:34 64° ESE 05:19:57 10° S
BREEZE-M DEB 2.9 05:10:28 10° SW 05:16:01 59° SE 05:18:20 10° ENE
SL-16 R/B 4.1 05:13:26 10° N 05:18:38 36° ENE 05:23:49 10° SE
Meteor 1-31 Rocket 2.8 05:15:57 10° NNE 05:19:53 90° W 05:23:49 10° SSW
Cosmos 1908 3.2 05:16:46 10° NNW 05:20:36 70° W 05:24:27 10° S
Cosmos 1076 Rocket 4.1 05:18:23 10° SSW 05:22:19 37° W 05:26:16 10° NNW
Cosmos 2123 Rocket 4.4 05:18:00 10° SSW 05:24:00 46° W 05:30:02 10° N
Cosmos 1726 3.9 05:20:49 10° N 05:24:20 37° E 05:27:51 10° SSE
Cosmos 1766 Rocket 3.9 05:25:04 10° SSW 05:29:23 48° W 05:33:43 10° N
